RH
11 8 7 8 7 6 5 6 10 11 11 15 18 20 21 19 18 21 20 21 22 23 22 22 26 27 27 34 36 38 42 49 52 44 50 48 46 41 41 41 44 45 45 49
10 15 14 10 9 7 7 10 13 13 12 15 18 21 20 20 22 22 22 23 23 24 24 24 24 26 30 31 35 38 41 46 47 45 50 51 49 41 37 39 46 46 48 52
13 16 13 12 10 10 10 11 13 13 12 14 18 21 20 19 20 22 23 23 23 26 26 26 26 27 28 32 34 32 38 44 50 57 53 59 48 47 46 39 41 45 49 50
16 11 12 11 11 11 18 14 14 13 13 15 11 22 22 19 21 23 24 26 27 27 26 26 26 27 28 31 34 31 32 35 40 51 57 67 72 64 41 44 39 40 46 49
20 16 13 12 15 16 18 16 16 15 15 14 14 13 23 20 23 24 24 27 28 29 29 28 28 26 26 30 33 37 36 36 38 44 50 58 72 78 68 48 51 51 50 48
16 14 14 16 18 18 16 18 18 16 16 21 16 15 22 21 25 26 25 25 27 26 25 24 25 26 28 30 36 34 33 37 42 45 55 58 67 76 86 84 76 61 51 46
16 16 15 16 15 16 17 19 20 20 20 19 17 18 27 24 26 27 26 24 24 24 24 23 24 23 27 32 39 38 36 34 38 46 55 60 63 71 80 87 77 77 74 69
15 22 14 16 16 14 18 17 24 24 14 16 19 25 26 24 24 24 22 22 22 22 24 23 23 25 24 28 34 40 40 40 39 41 54 57 61 60 71 77 80 70 73 73
14 21 18 18 19 18 19 23 22 33 29 21 18 27 27 23 26 26 25 24 24 24 23 24 22 24 26 28 32 39 37 34 40 43 46 57 62 65 71 71 72 76 66 65
18 24 15 21 22 22 25 18 27 28 30 26 18 26 27 29 28 27 27 26 25 24 24 23 22 24 25 27 27 33 37 35 38 44 47 52 60 63 67 70 72 73 72 67
17 20 25 22 27 18 24 22 28 25 33 26 18 24 25 27 27 28 26 26 26 26 25 23 23 24 25 26 27 30 32 33 38 40 46 60 64 66 68 70 72 73 73 72
22 22 24 20 20 20 23 21 24 28 34 23 29 30 25 28 26 28 24 25 25 24 24 23 23 23 24 26 26 27 29 31 34 34 38 47 65 65 72 73 72 73 73 69
25 27 37 30 24 22 25 23 25 29 32 27 34 33 28 25 24 22 25 23 23 25 25 24 24 25 26 27 27 26 28 30 30 30 34 40 49 56 68 73 76 74 72 71
30 26 31 30 31 25 32 23 21 25 44 30 22 33 31 27 26 20 21 23 25 26 26 24 26 27 26 27 27 26 28 29 29 28 31 38 44 49 50 57 68 73 76 74
32 43 29 21 24 24 26 26 23 24 27 37 22 18 12 15 18 22 24 26 27 26 24 25 26 27 26 28 28 27 29 29 29 29 31 36 40 43 45 50 56 62 64 75
36 42 32 36 22 21 21 18 22 22 22 21 19 20 14 13 20 27 28 28 27 26 24 25 25 25 28 26 27 27 29 31 30 30 32 33 37 39 45 54 54 53 57 61
38 35 38 35 27 30 57 35 18 19 20 20 26 19 16 24 27 28 28 27 26 27 26 27 28 29 28 26 27 29 30 29 30 31 30 33 38 40 44 42 45 55 61 60
34 33 36 47 38 83 31 21 18 17 16 16 18 16 22 22 26 26 25 25 27 28 29 30 31 30 26 24 25 29 28 28 31 30 33 35 38 40 41 44 48 56 56 61
28 31 70 81 47 30 26 27 24 22 20 17 18 18 23 24 28 29 22 26 28 29 34 36 32 29 24 24 28 29 30 29 29 34 36 36 38 41 42 47 50 51 54 57
30 31 55 71 76 72 30 20 20 18 34 19 21 23 26 26 37 28 27 28 30 33 34 35 31 25 24 28 29 32 32 31 35 38 38 36 39 42 47 48 53 58 59 56
51 48 71 68 75 44 22 22 24 37 35 20 23 24 27 31 26 27 30 28 31 34 31 27 23 24 26 27 30 32 33 36 38 38 38 37 39 46 46 51 54 57 59 60
45 56 62 54 79 76 23 28 33 30 29 24 23 25 30 28 28 30 26 29 30 30 27 20 20 22 25 27 29 33 35 37 36 38 39 38 43 42 42 57 60 63 66 72
48 34 46 44 43 32 28 32 26 28 28 25 27 24 28 30 28 25 28 31 31 30 22 17 19 22 24 26 31 37 40 38 39 42 40 42 45 46 52 61 66 72 72 78
32 27 42 40 31 30 28 26 25 26 24 22 22 24 27 29 30 29 31 33 32 24 18 19 21 23 27 30 32 37 37 38 43 44 43 45 49 59 61 62 67 74 78 88
30 31 39 38 26 27 25 25 25 25 22 23 22 24 24 26 28 26 29 33 30 20 20 22 24 28 31 32 35 36 37 42 46 46 43 49 55 64 66 66 71 72 71 77
27 34 42 39 28 32 28 24 22 26 25 26 26 25 25 25 26 25 32 33 25 21 23 23 26 31 34 34 37 38 42 48 51 48 47 57 68 70 71 76 74 75 80 80
Wind_Speed
10 10 8 6 3 5 11 15 13 12 7 15 17 17 15 14 15 16 16 16 17 19 19 20 20 22 24 25 24 23 20 18 12 8 9 10 12 12 12 13 15 15 14 15
8 9 6 5 6 9 12 17 14 10 12 13 16 16 14 14 13 15 15 15 16 16 18 19 21 22 23 24 23 24 23 22 19 16 12 8 9 11 12 12 13 15 15 15
4 11 7 9 10 11 8 9 12 16 11 14 17 14 12 13 12 11 13 13 14 15 17 17 20 22 22 22 23 22 24 23 20 24 16 14 12 11 11 12 12 13 17 17
8 7 8 10 9 4 10 6 8 13 17 9 12 8 6 9 10 11 11 12 12 14 15 16 17 19 21 20 19 21 22 23 21 23 19 20 14 18 11 11 12 13 17 18
7 9 9 9 5 7 11 7 7 10 11 10 9 9 12 3 7 8 9 12 12 13 14 15 16 17 18 19 18 18 19 21 22 21 22 15 18 13 19 13 14 13 12 15
10 6 3 7 6 3 11 10 8 5 6 8 3 10 9 7 4 5 7 10 12 13 13 15 14 15 16 16 17 18 20 20 20 20 17 20 21 20 17 20 18 12 10 11
13 7 7 5 10 8 10 14 7 9 7 2 5 7 12 9 4 5 6 9 10 12 13 13 15 15 16 17 17 16 19 20 20 21 17 16 16 15 16 16 15 17 17 14
10 9 10 4 5 4 10 11 6 8 6 10 6 7 9 8 6 4 5 7 8 10 11 13 14 15 16 16 17 17 18 18 20 19 17 13 15 10 9 11 12 12 12 13
8 7 5 2 3 7 8 7 7 1 6 3 10 10 7 9 9 5 3 4 6 8 10 11 12 12 13 15 16 16 17 18 18 18 15 14 12 14 13 14 12 11 14 14
5 7 6 6 5 4 8 7 5 3 6 7 8 12 7 15 11 7 5 1 4 6 8 9 11 12 13 13 14 14 15 17 18 18 15 13 13 13 13 13 14 14 15 17
8 3 9 6 9 10 6 7 5 3 4 4 5 6 12 13 7 4 2 0 3 6 7 8 8 10 12 13 14 14 15 16 14 15 16 13 12 13 13 12 13 13 15 16
3 3 8 10 4 9 7 4 8 6 9 2 6 7 8 10 7 2 2 2 4 5 7 9 11 11 12 13 14 15 15 15 15 16 14 15 12 13 13 12 15 13 14 14
10 7 8 7 5 8 9 8 6 0 4 9 5 7 10 8 6 4 5 5 5 3 6 9 10 11 13 14 15 15 15 15 15 14 15 16 14 14 15 14 15 14 15 14
2 8 5 4 7 11 11 15 11 8 4 4 10 13 11 9 10 2 3 2 4 6 7 8 10 12 12 13 14 15 14 14 15 15 14 15 16 15 13 11 14 15 15 14
6 7 6 5 6 3 8 13 14 15 10 7 2 8 1 3 2 3 2 3 4 6 7 9 10 12 13 13 13 13 14 15 15 16 16 16 16 16 18 18 15 15 16 14
7 5 7 3 4 4 7 10 13 16 15 15 13 12 7 6 4 6 4 4 6 6 8 10 12 13 13 13 13 13 14 14 15 16 16 16 17 17 17 15 16 16 15 18
10 8 8 5 5 2 8 20 20 17 17 15 16 11 8 6 7 6 4 4 6 6 9 10 11 12 12 12 13 13 14 14 14 15 16 18 18 19 18 19 19 17 16 15
11 10 4 6 8 4 1 1 16 19 15 17 12 9 6 4 2 3 5 4 4 8 9 9 10 11 12 12 12 13 14 14 15 15 16 17 17 18 19 20 19 18 17 16
11 7 4 5 10 6 10 8 8 16 16 14 15 12 8 6 3 11 6 4 4 7 6 8 9 11 11 12 13 14 14 14 15 16 17 18 19 20 20 20 19 18 18 18
7 7 4 4 5 7 6 9 7 6 9 15 15 13 10 9 7 7 6 2 5 4 6 7 9 10 10 11 12 13 13 14 15 16 17 18 19 20 20 20 19 16 16 18
10 8 10 8 6 6 7 12 11 8 3 11 12 10 10 9 7 8 4 4 1 3 6 7 8 8 9 10 12 13 13 14 14 16 17 18 19 20 20 20 18 16 17 16
13 12 8 10 8 10 17 15 9 7 10 11 8 8 7 6 2 3 5 3 3 5 6 6 7 8 9 10 10 12 13 14 15 17 18 19 19 17 16 21 18 18 16 16
10 9 8 11 7 3 20 5 10 7 10 7 7 6 7 6 5 6 5 3 3 5 6 6 8 9 9 10 10 12 13 14 15 17 18 19 20 18 19 18 17 14 15 13
11 13 5 9 11 12 17 9 13 9 8 8 6 6 7 7 6 6 6 6 3 5 5 7 8 8 9 9 11 11 13 14 15 16 17 17 18 19 16 13 12 13 13 12
9 17 14 11 5 14 12 16 12 12 9 9 8 7 7 7 9 7 7 4 3 4 4 6 7 7 9 10 10 11 12 14 14 15 15 16 15 17 15 14 12 13 14 13
9 14 13 9 15 10 13 16 17 15 14 11 10 9 8 8 8 7 6 3 2 2 3 5 6 7 8 9 10 11 12 13 14 14 13 13 12 13 12 13 13 12 14 18
Wind_Direction
212 196 175 88 15 39 143 140 116 121 94 109 103 98 87 70 68 71 66 61 58 57 51 47 42 42 37 34 28 23 14 3 347 273 250 252 241 243 235 246 246 231 223 214
182 110 106 129 140 142 146 133 120 117 174 135 118 102 92 85 76 63 63 61 50 48 48 44 40 41 39 34 31 31 22 12 9 349 328 254 262 249 247 234 240 253 236 225
152 132 158 158 149 141 124 144 172 135 153 133 132 107 113 100 87 81 74 59 55 44 44 41 42 41 41 39 31 34 31 23 16 7 347 351 292 256 260 254 236 231 247 232
96 134 162 162 134 130 127 97 127 155 166 180 228 122 110 103 93 75 64 57 50 43 39 41 37 39 39 36 36 33 36 28 27 21 16 7 348 327 261 246 258 245 228 232
116 151 169 160 96 291 119 167 170 174 216 167 179 245 117 171 96 63 44 47 40 43 36 40 33 37 34 31 25 25 25 30 23 25 25 16 11 346 338 286 264 258 261 236
121 74 15 108 141 36 136 157 161 207 159 231 153 271 143 142 85 56 42 52 42 41 41 42 37 38 30 33 24 24 18 24 21 17 17 21 13 4 1 354 344 307 269 244
156 138 125 201 147 168 206 178 155 190 198 105 132 231 76 118 96 69 51 54 55 50 43 35 35 29 34 27 24 15 15 17 17 13 10 15 15 11 3 359 349 349 345 319
165 167 180 162 304 150 190 211 300 222 196 136 156 187 147 121 118 110 84 70 57 51 43 31 31 25 24 24 24 16 11 6 12 12 4 7 12 2 1 354 358 349 347 336
187 110 118 167 191 276 149 216 40 124 38 262 147 90 133 161 159 153 87 65 50 35 30 28 27 26 19 16 24 15 9 5 6 1 9 356 4 0 347 347 349 352 347 339
111 129 180 139 214 208 292 110 176 219 191 214 180 167 133 177 171 162 164 43 34 21 17 18 11 17 14 15 15 12 9 2 1 357 358 357 355 356 345 343 345 333 344 335
167 185 157 168 218 166 171 188 243 324 312 267 191 132 104 150 157 178 174 13 359 351 4 6 12 14 9 6 8 3 1 357 1 350 354 346 353 350 344 344 335 334 330 335
122 105 164 184 70 334 317 226 204 254 170 224 328 89 115 132 148 176 292 229 323 343 348 353 2 8 4 3 360 355 358 355 356 347 350 347 344 346 336 340 336 332 333 334
182 163 137 159 178 212 221 202 215 304 312 201 212 117 149 142 163 194 247 281 287 351 353 342 358 1 357 355 355 352 356 352 352 347 346 347 341 344 332 329 338 329 330 326
212 194 270 196 77 141 189 187 198 199 203 229 224 126 171 190 229 298 271 252 296 338 339 349 349 352 353 353 351 350 352 350 347 343 345 340 342 334 327 322 322 334 323 327
234 184 187 101 100 118 179 193 197 213 212 215 253 243 162 148 257 281 291 268 286 307 335 345 346 345 349 351 351 350 346 343 343 341 340 342 340 333 332 330 327 323 321 337
199 144 161 190 175 215 232 234 223 222 225 235 244 250 257 244 174 209 221 262 296 315 335 341 345 345 348 348 347 342 344 339 337 338 336 339 336 334 331 324 324 315 324 320
174 150 171 145 160 175 268 234 226 227 221 234 237 244 172 186 202 225 242 277 305 328 335 338 342 345 344 342 339 345 336 333 335 331 338 336 335 332 331 328 324 322 312 308
172 173 141 137 149 227 186 329 218 226 226 219 237 243 194 212 199 237 260 287 338 341 332 339 342 342 339 336 344 336 333 332 336 337 339 334 332 328 326 327 325 320 315 315
184 154 146 157 205 304 191 205 195 195 221 216 217 209 202 181 202 245 237 97 310 328 337 340 339 334 332 342 342 334 331 337 336 345 336 333 331 328 328 325 323 320 321 319
191 234 172 175 212 220 92 144 174 166 250 197 201 199 182 178 221 111 111 27 317 348 335 337 332 330 337 343 336 331 332 332 345 338 333 330 330 329 328 326 326 327 323 318
172 191 194 185 225 268 141 151 151 199 107 149 169 183 186 202 229 39 23 318 5 311 324 341 328 332 341 337 335 327 331 342 337 334 331 329 333 332 329 330 328 326 320 311
170 167 183 208 207 243 151 158 195 111 132 136 156 165 181 208 236 297 287 257 285 318 325 333 327 343 339 343 336 331 334 338 337 333 332 333 335 334 335 332 328 322 318 315
197 198 173 194 201 123 159 167 176 157 148 154 161 160 182 202 228 256 232 222 289 303 328 339 344 336 345 346 343 332 336 338 335 335 333 334 335 341 336 331 327 324 323 320
217 194 200 175 209 173 182 170 187 175 172 161 177 183 186 228 228 228 222 213 270 317 337 343 334 343 343 344 341 338 338 341 337 334 334 335 337 341 336 330 327 320 319 321
177 175 195 210 164 172 196 202 191 182 189 178 183 208 232 227 210 230 225 185 288 310 336 340 340 341 338 342 339 341 342 344 336 333 336 338 343 336 335 329 325 320 320 322
175 187 192 212 186 195 194 199 204 196 197 196 215 203 203 218 217 228 203 168 234 300 326 327 341 337 339 337 342 341 351 343 333 333 340 346 333 336 332 326 325 320 304 308